• In Uzbekistan
  • List of Countries
  • For 7 days
  • Water Temperature
  • Satellite Maps
  • Weather Map
  • Weather Widgets
  • user-avatar
    Login

    Hourly Weather Rustawi

    Today, 19 August, Saturday

    Time Temperature Precipitation Wind Pressure Humidity
    00:00 +24°C° 0 mm 2 mps 726 mmHg 55%
    01:00 +24°C° 0 mm 2 mps 727 mmHg 56%
    02:00 +23°C° 0 mm 2 mps 727 mmHg 57%
    03:00 +23°C° 0 mm 2 mps 727 mmHg 59%
    04:00 +23°C° 0 mm 2 mps 727 mmHg 60%
    05:00 +23°C° 0 mm 2 mps 727 mmHg 60%
    06:00 +23°C° 0 mm 1 mps 727 mmHg 61%
    07:00 +25°C° 0 mm 2 mps 727 mmHg 55%
    08:00 +27°C° 0 mm 2 mps 727 mmHg 49%
    09:00 +28°C° 0 mm 2 mps 727 mmHg 43%
    10:00 +30°C° 0.1 mm 2 mps 727 mmHg 41%
    11:00 +31°C° 0.1 mm 3 mps 727 mmHg 39%
    12:00 +33°C° 0.1 mm 3 mps 726 mmHg 37%
    13:00 +34°C° 0.1 mm 4 mps 726 mmHg 34%
    14:00 +35°C° 0.1 mm 4 mps 726 mmHg 32%
    15:00 +36°C° 0.1 mm 4 mps 726 mmHg 29%
    16:00 +35°C° 0 mm 4 mps 726 mmHg 30%
    17:00 +34°C° 0 mm 4 mps 726 mmHg 31%
    18:00 +33°C° 0 mm 4 mps 726 mmHg 32%
    19:00 +30°C° 0 mm 3 mps 726 mmHg 35%
    20:00 +28°C° 0 mm 3 mps 727 mmHg 39%
    21:00 +26°C° 0 mm 3 mps 727 mmHg 43%
    22:00 +25°C° 0 mm 2 mps 727 mmHg 44%
    23:00 +24°C° 0 mm 2 mps 728 mmHg 46%

    Tomorrow, 20 August, Sunday

    Time Temperature Precipitation Wind Pressure Humidity
    00:00 +24°C° 0 mm 2 mps 728 mmHg 48%
    01:00 +23°C° 0 mm 2 mps 728 mmHg 49%
    02:00 +21°C° 0 mm 2 mps 728 mmHg 51%
    03:00 +21°C° 0 mm 2 mps 727 mmHg 52%
    04:00 +21°C° 0 mm 2 mps 727 mmHg 52%
    05:00 +21°C° 0 mm 2 mps 727 mmHg 52%
    06:00 +21°C° 0 mm 2 mps 727 mmHg 51%
    07:00 +24°C° 0 mm 2 mps 727 mmHg 43%
    08:00 +27°C° 0 mm 2 mps 727 mmHg 36%
    09:00 +29°C° 0 mm 2 mps 727 mmHg 28%
    10:00 +31°C° 0 mm 2 mps 726 mmHg 25%
    11:00 +33°C° 0 mm 3 mps 726 mmHg 23%
    12:00 +34°C° 0 mm 4 mps 726 mmHg 21%
    13:00 +35°C° 0 mm 4 mps 725 mmHg 20%
    14:00 +36°C° 0 mm 4 mps 725 mmHg 19%
    15:00 +36°C° 0 mm 4 mps 725 mmHg 19%
    16:00 +35°C° 0 mm 4 mps 725 mmHg 20%
    17:00 +34°C° 0 mm 3 mps 725 mmHg 22%
    18:00 +33°C° 0 mm 3 mps 725 mmHg 24%
    19:00 +30°C° 0 mm 3 mps 725 mmHg 26%
    20:00 +28°C° 0 mm 3 mps 726 mmHg 29%
    21:00 +25°C° 0 mm 3 mps 726 mmHg 32%
    22:00 +25°C° 0 mm 3 mps 726 mmHg 34%
    23:00 +24°C° 0 mm 2 mps 726 mmHg 35%

    Day after tomorrow, 21 August, Monday

    Time Temperature Precipitation Wind Pressure Humidity
    00:00 +23°C° 0 mm 2 mps 726 mmHg 37%
    01:00 +23°C° 0 mm 2 mps 726 mmHg 39%
    02:00 +21°C° 0 mm 2 mps 726 mmHg 42%
    03:00 +21°C° 0 mm 2 mps 726 mmHg 44%
    04:00 +21°C° 0 mm 2 mps 726 mmHg 44%
    05:00 +21°C° 0 mm 2 mps 726 mmHg 45%
    06:00 +21°C° 0 mm 2 mps 726 mmHg 46%
    07:00 +24°C° 0 mm 1 mps 726 mmHg 40%
    08:00 +27°C° 0 mm 1 mps 725 mmHg 34%
    09:00 +30°C° 0 mm 1 mps 725 mmHg 28%
    10:00 +31°C° 0 mm 2 mps 725 mmHg 26%
    11:00 +34°C° 0 mm 2 mps 725 mmHg 23%
    12:00 +35°C° 0 mm 3 mps 724 mmHg 21%
    13:00 +36°C° 0 mm 3 mps 724 mmHg 20%
    14:00 +36°C° 0 mm 3 mps 723 mmHg 19%
    15:00 +37°C° 0 mm 3 mps 723 mmHg 19%
    16:00 +36°C° 0 mm 3 mps 723 mmHg 20%
    17:00 +35°C° 0 mm 3 mps 723 mmHg 22%
    18:00 +34°C° 0 mm 3 mps 723 mmHg 24%
    19:00 +31°C° 0 mm 2 mps 724 mmHg 27%
    20:00 +28°C° 0 mm 2 mps 724 mmHg 29%
    21:00 +26°C° 0 mm 2 mps 724 mmHg 32%
    22:00 +25°C° 0 mm 2 mps 724 mmHg 33%
    23:00 +24°C° 0 mm 2 mps 724 mmHg 34%

    22 August, Tuesday

    Time Temperature Precipitation Wind Pressure Humidity
    00:00 +24°C° 0 mm 2 mps 724 mmHg 34%
    01:00 +23°C° 0 mm 2 mps 724 mmHg 36%
    02:00 +23°C° 0 mm 2 mps 724 mmHg 38%
    03:00 +21°C° 0 mm 2 mps 724 mmHg 39%
    04:00 +21°C° 0 mm 2 mps 724 mmHg 40%
    05:00 +21°C° 0 mm 2 mps 724 mmHg 42%
    06:00 +21°C° 0 mm 2 mps 724 mmHg 43%
    07:00 +25°C° 0 mm 1 mps 724 mmHg 37%
    08:00 +28°C° 0 mm 1 mps 724 mmHg 31%
    09:00 +31°C° 0 mm 1 mps 724 mmHg 25%
    10:00 +32°C° 0 mm 2 mps 723 mmHg 23%
    11:00 +34°C° 0 mm 2 mps 723 mmHg 21%
    12:00 +36°C° 0 mm 3 mps 723 mmHg 19%
    13:00 +37°C° 0 mm 3 mps 722 mmHg 19%
    14:00 +37°C° 0 mm 4 mps 722 mmHg 18%
    15:00 +38°C° 0 mm 4 mps 722 mmHg 17%
    16:00 +37°C° 0 mm 3 mps 722 mmHg 19%
    17:00 +36°C° 0 mm 3 mps 722 mmHg 20%
    18:00 +35°C° 0 mm 2 mps 722 mmHg 22%
    19:00 +31°C° 0 mm 2 mps 723 mmHg 25%
    20:00 +29°C° 0 mm 2 mps 723 mmHg 27%
    21:00 +26°C° 0 mm 2 mps 724 mmHg 30%
    22:00 +26°C° 0 mm 2 mps 724 mmHg 31%
    23:00 +25°C° 0 mm 2 mps 724 mmHg 32%

    23 August, Wednesday

    Time Temperature Precipitation Wind Pressure Humidity
    00:00 +24°C° 0 mm 2 mps 724 mmHg 33%
    01:00 +24°C° 0 mm 2 mps 724 mmHg 34%
    02:00 +23°C° 0 mm 2 mps 724 mmHg 35%
    03:00 +23°C° 0 mm 2 mps 724 mmHg 37%
    04:00 +23°C° 0 mm 2 mps 724 mmHg 38%
    05:00 +23°C° 0 mm 2 mps 724 mmHg 39%
    06:00 +23°C° 0 mm 2 mps 725 mmHg 40%
    07:00 +25°C° 0 mm 1 mps 725 mmHg 34%
    08:00 +28°C° 0 mm 1 mps 725 mmHg 29%
    09:00 +31°C° 0 mm 1 mps 725 mmHg 24%
    10:00 +32°C° 0 mm 2 mps 725 mmHg 22%
    11:00 +35°C° 0 mm 3 mps 725 mmHg 20%
    12:00 +36°C° 0 mm 3 mps 724 mmHg 18%
    13:00 +36°C° 0 mm 4 mps 724 mmHg 17%
    14:00 +37°C° 0 mm 4 mps 724 mmHg 17%
    15:00 +37°C° 0 mm 4 mps 724 mmHg 16%
    16:00 +36°C° 0 mm 3 mps 725 mmHg 18%
    17:00 +35°C° 0 mm 2 mps 725 mmHg 20%
    18:00 +34°C° 0 mm 2 mps 726 mmHg 22%
    19:00 +31°C° 0 mm 2 mps 726 mmHg 25%
    20:00 +29°C° 0 mm 2 mps 727 mmHg 28%
    21:00 +26°C° 0 mm 2 mps 728 mmHg 32%
    22:00 +26°C° 0 mm 2 mps 728 mmHg 36%
    23:00 +25°C° 0 mm 2 mps 728 mmHg 39%

    24 August, Thursday

    Time Temperature Precipitation Wind Pressure Humidity
    00:00 +24°C° 0 mm 2 mps 728 mmHg 43%
    01:00 +24°C° 0 mm 2 mps 728 mmHg 46%
    02:00 +23°C° 0 mm 2 mps 729 mmHg 48%
    03:00 +23°C° 0 mm 2 mps 729 mmHg 50%
    04:00 +23°C° 0 mm 2 mps 729 mmHg 50%
    05:00 +23°C° 0 mm 2 mps 729 mmHg 50%
    06:00 +23°C° 0 mm 2 mps 729 mmHg 50%
    07:00 +25°C° 0 mm 1 mps 729 mmHg 44%
    08:00 +28°C° 0 mm 1 mps 729 mmHg 38%
    09:00 +31°C° 0 mm 1 mps 729 mmHg 32%
    10:00 +32°C° 0 mm 2 mps 729 mmHg 28%
    11:00 +35°C° 0 mm 4 mps 728 mmHg 24%
    12:00 +36°C° 0 mm 5 mps 728 mmHg 19%
    13:00 +36°C° 0 mm 5 mps 728 mmHg 18%
    14:00 +37°C° 0 mm 5 mps 728 mmHg 18%
    15:00 +37°C° 0 mm 5 mps 727 mmHg 17%
    16:00 +36°C° 0 mm 5 mps 728 mmHg 18%
    17:00 +35°C° 0 mm 4 mps 728 mmHg 20%
    18:00 +34°C° 0 mm 3 mps 728 mmHg 21%
    19:00 +30°C° 0 mm 3 mps 728 mmHg 24%
    20:00 +28°C° 0 mm 3 mps 729 mmHg 26%
    21:00 +26°C° 0 mm 3 mps 729 mmHg 28%
    22:00 +25°C° 0 mm 2 mps 729 mmHg 29%
    23:00 +24°C° 0 mm 2 mps 729 mmHg 30%
    Show more